Regional Weather Roundup
Issued by NWS

Home | Current Version | Previous Version | Graphics & Text | Print | Product List | Glossary On
Versions: 1 2 3 4 5 6 7 8 9 10 11 12 13 14 15 16 17 18 19 20 21 22 23 24 25 26 27
000
ASUS45 KCYS 310510
RWRWY

WYOMING REGIONAL WEATHER ROUNDUP
NATIONAL WEATHER SERVICE CHEYENNE WY
1100 PM MDT THU OCT 30 2014

NOTE:  "FAIR" INDICATES FEW OR NO CLOUDS BELOW 12,000 FEET
WITH NO SIGNIFICANT WEATHER AND/OR OBSTRUCTIONS TO VISIBILITY.

WYZ001-310600-
YELLOWSTONE NATIONAL PARK

CITY           SKY/WX    TMP DP  RH WIND       PRES   REMARKS
LK YELLOWSTONE   N/A     30  28  92 CALM      30.31F
W YELLOWSTONE  NOT AVBL

$$
WYZ002>013-054>058-071-098>099-310600-
NORTHERN WYOMING

CITY           SKY/WX    TMP DP  RH WIND       PRES   REMARKS
JACKSON        MOCLDY    36  30  80 N6        30.26S WCI  31
CODY           PTCLDY    43  28  56 S5        30.22
GREYBULL       PTCLDY    44  24  45 SE5       30.22F
WORLAND        PTCLDY    43  23  45 SE8       30.22F
SHERIDAN       PTCLDY    47  27  45 S10       30.24F
BUFFALO        PTCLDY    45  25  45 S16       30.30F
GILLETTE       CLEAR     41  32  70 S16       30.33F
HULETT         FAIR      32  30  93 SW8       30.38S WCI  25
NEWCASTLE      FAIR      32  32 100 SE6       30.41S WCI  26

$$
WYZ014>020-022>026-101>103-310600-
CENTRAL WYOMING

CITY           SKY/WX    TMP DP  RH WIND       PRES   REMARKS
BIG PINEY      CLOUDY    31  21  66 E8        30.31F WCI  23
PINEDALE       MOCLDY    30  25  80 W5        30.32S WCI  25
DUBOIS         FAIR      34  27  75 CALM      30.33S
LANDER         PTCLDY    41  27  57 NW3       30.26F
RIVERTON       PTCLDY    40  24  53 NW8       30.28S WCI  34
CASPER         CLEAR     36  22  56 CALM      30.32F
DOUGLAS        CLEAR     38  29  70 SE12      30.39R WCI  30

$$
WYZ021-027>030-104>119-310600-
SOUTHERN WYOMING

CITY           SKY/WX    TMP DP  RH WIND       PRES   REMARKS
EVANSTON       MOCLDY    48  24  39 E7        30.26S
KEMMERER       CLOUDY    46  27  46 NE7       30.28S
FORT BRIDGER   FAIR      47  26  45 CALM      30.29S
ROCK SPRINGS   MOCLDY    46  26  45 SE10      30.28F
RAWLINS        PTCLDY    36  18  48 S3        30.34S
SARATOGA       FAIR      37  23  56 SE7       30.35F WCI  32
LARAMIE        CLEAR     39  24  55 SE18      30.38F WCI  30
CHEYENNE       CLEAR     35  25  66 W5        30.42R WCI  31
TORRINGTON     CLEAR     35  30  82 E9        30.41R WCI  28
PINE BLUFFS    FAIR      37  30  75 CALM      30.43R

$$



USA.gov is the U.S. government's official web portal to all federal, state and local government web resources and services.